Clinton, OK

3:53 AM CDT on July 27, 2017 (GMT -0500)
Clinton Municipal

Weather History for KCLK - March, 2013

Change the Weather History Date:

Sunday, March 17, 2013

  Actual Average (KCSM) Record (KCSM)
Temperature  
Mean Temperature 42 °F -  
Max Temperature 50 °F 58 °F 90 °F (2011)
Min Temperature 35 °F 37 °F 27 °F (2014)
Degree Days  
Heating Degree Days 22    
Moisture  
Dew Point 33 °F    
Average Humidity 71    
Maximum Humidity 87    
Minimum Humidity 54    
Precipitation  
Precipitation 0.00 in - - ()
Sea Level Pressure  
Sea Level Pressure 29.80 in    
Wind  
Wind Speed 15 mph (NNE)    
Max Wind Speed 24 mph    
Max Gust Speed 31 mph    
Visibility 10 miles    
Events      
Averages and records for this station are not official NWS values.
T = Trace of Precipitation, MM = Missing Value Source: NWS Daily Summary

Daily Weather History Graph

Daily Weather History Graph

Search for Another Location

Airport or City:

Trip Planner

Search our weather history database for the weather conditions in past years. The results will help you decide how hot, cold, wet, or windy it might be!

Date:

Astronomy

Mar. 17, 2013 Rise Set
Actual Time 7:43 AM CDT 7:45 PM CDT
Civil Twilight 7:17 AM CDT 8:10 PM CDT
Nautical Twilight 6:48 AM CDT 8:40 PM CDT
Astronomical Twilight 6:18 AM CDT 9:10 PM CDT
Moon 11:08 AM CDT (3/17) 12:43 AM CDT (3/17)
Length of Visible Light 12h 52m
Length of Day
12h 02m
Waxing Crescent, 31% of the Moon is Illuminated
Mar 17
Waxing Crescent
Mar 19
First Quarter
Mar 27
Full
Apr 2
Last Quarter
Apr 10
New

Hourly Weather History & Observations

Time (CDT) Temp. Windchill Dew Point Humidity Pressure Visibility Wind Dir Wind Speed Gust Speed Precip Events Conditions
12:15 AM 44.6 °F 36.6 °F 32.0 °F 61% 29.87 in 10.0 mi North 19.6 mph 26.5 mph N/A   Scattered Clouds
12:35 AM 44.6 °F 35.9 °F 32.0 °F 61% 29.85 in 10.0 mi NNE 23.0 mph 29.9 mph N/A   Mostly Cloudy
1:15 AM 42.8 °F 33.5 °F 32.0 °F 66% 29.86 in 10.0 mi NNE 23.0 mph 28.8 mph N/A   Overcast
1:35 AM 42.8 °F 33.5 °F 32.0 °F 66% 29.86 in 10.0 mi NNE 23.0 mph 31.1 mph N/A   Overcast
2:15 AM 41.0 °F 31.9 °F 32.0 °F 70% 29.88 in 10.0 mi North 19.6 mph 25.3 mph N/A   Overcast
2:35 AM 41.0 °F 30.9 °F 32.0 °F 70% 29.88 in 10.0 mi North 24.2 mph - N/A   Overcast
2:55 AM 41.0 °F 32.8 °F 32.0 °F 70% 29.86 in 10.0 mi NNE 16.1 mph 21.9 mph N/A   Overcast
3:15 AM 41.0 °F 31.9 °F 30.2 °F 65% 29.86 in 10.0 mi NNE 19.6 mph 26.5 mph N/A   Overcast
3:35 AM 41.0 °F 32.2 °F 30.2 °F 65% 29.88 in 10.0 mi North 18.4 mph 24.2 mph N/A   Overcast
4:15 AM 39.2 °F 30.5 °F 30.2 °F 70% 29.86 in 10.0 mi NNE 16.1 mph 23.0 mph N/A   Overcast
4:35 AM 39.2 °F 29.0 °F 30.2 °F 70% 29.86 in 10.0 mi NNE 21.9 mph 25.3 mph N/A   Overcast
4:55 AM 37.4 °F 27.8 °F 30.2 °F 75% 29.86 in 10.0 mi NNE 17.3 mph 20.7 mph N/A   Overcast
5:15 AM 37.4 °F 27.8 °F 30.2 °F 75% 29.87 in 10.0 mi North 17.3 mph 23.0 mph N/A   Mostly Cloudy
5:35 AM 37.4 °F 27.5 °F 30.2 °F 75% 29.86 in 10.0 mi North 18.4 mph 25.3 mph N/A   Mostly Cloudy
5:55 AM 37.4 °F 27.8 °F 30.2 °F 75% 29.87 in 10.0 mi North 17.3 mph - N/A   Mostly Cloudy
6:15 AM 35.6 °F 26.6 °F 30.2 °F 81% 29.87 in 10.0 mi North 13.8 mph - N/A   Scattered Clouds
6:35 AM 35.6 °F 27.1 °F 30.2 °F 81% 29.88 in 10.0 mi North 12.7 mph 17.3 mph N/A   Mostly Cloudy
7:15 AM 35.6 °F 26.2 °F 30.2 °F 81% 29.87 in 10.0 mi NNE 15.0 mph - N/A   Mostly Cloudy
7:35 AM 35.6 °F 25.2 °F 30.2 °F 81% 29.85 in 10.0 mi NNE 18.4 mph - N/A   Scattered Clouds
7:55 AM 35.6 °F 27.1 °F 30.2 °F 81% 29.85 in 10.0 mi NNE 12.7 mph - N/A   Clear
8:15 AM 35.6 °F 26.6 °F 30.2 °F 81% 29.85 in 10.0 mi NNE 13.8 mph - N/A   Clear
8:35 AM 35.6 °F 27.1 °F 30.2 °F 81% 29.85 in 10.0 mi NNE 12.7 mph - N/A   Clear
8:55 AM 35.6 °F 28.0 °F 30.2 °F 81% 29.85 in 10.0 mi North 10.4 mph - N/A   Scattered Clouds
9:15 AM 37.4 °F 29.8 °F 30.2 °F 75% 29.87 in 10.0 mi NNE 11.5 mph - N/A   Mostly Cloudy
9:35 AM 37.4 °F 29.8 °F 30.2 °F 75% 29.87 in 10.0 mi NE 11.5 mph - N/A   Overcast
10:15 AM 37.4 °F 30.3 °F 32.0 °F 81% 29.87 in 10.0 mi NNE 10.4 mph - N/A   Overcast
10:35 AM 37.4 °F 29.8 °F 30.2 °F 75% 29.88 in 10.0 mi North 11.5 mph - N/A   Overcast
10:55 AM 37.4 °F 30.8 °F 32.0 °F 81% 29.89 in 10.0 mi NNW 9.2 mph - N/A   Overcast
11:15 AM 37.4 °F 29.8 °F 30.2 °F 75% 29.88 in 10.0 mi North 11.5 mph - N/A   Overcast
11:35 AM 37.4 °F 29.3 °F 32.0 °F 81% 29.87 in 10.0 mi NNW 12.7 mph - N/A   Overcast
11:55 AM 37.4 °F 29.8 °F 30.2 °F 75% 29.88 in 10.0 mi North 11.5 mph - N/A   Overcast
12:15 PM 39.2 °F 32.5 °F 32.0 °F 75% 29.88 in 10.0 mi NNW 10.4 mph - N/A   Overcast
12:35 PM 39.2 °F 33.0 °F 32.0 °F 75% 29.87 in 10.0 mi NNW 9.2 mph - N/A   Overcast
12:55 PM 41.0 °F 34.7 °F 32.0 °F 70% 29.85 in 10.0 mi NNW 10.4 mph - N/A   Overcast
1:15 PM 41.0 °F 33.9 °F 32.0 °F 70% 29.84 in 10.0 mi North 12.7 mph 16.1 mph N/A   Overcast
1:35 PM 41.0 °F 34.7 °F 32.0 °F 70% 29.84 in 10.0 mi North 10.4 mph - N/A   Overcast
1:55 PM 42.8 °F 38.0 °F 32.0 °F 66% 29.82 in 10.0 mi North 8.1 mph - N/A   Overcast
2:15 PM 42.8 °F 39.3 °F 32.0 °F 66% 29.80 in 10.0 mi NNW 5.8 mph - N/A   Overcast
2:35 PM 44.6 °F 40.2 °F 32.0 °F 61% 29.79 in 10.0 mi North 8.1 mph - N/A   Overcast
2:55 PM 44.6 °F 42.2 °F 32.0 °F 61% 29.78 in 10.0 mi North 4.6 mph - N/A   Overcast
3:15 PM 44.6 °F 41.4 °F 32.0 °F 61% 29.75 in 10.0 mi NW 5.8 mph - N/A   Mostly Cloudy
3:35 PM 46.4 °F 43.5 °F 33.8 °F 62% 29.74 in 10.0 mi NNE 5.8 mph - N/A   Mostly Cloudy
3:55 PM 46.4 °F - 33.8 °F 62% 29.73 in 10.0 mi Calm Calm - N/A   Scattered Clouds
4:15 PM 48.2 °F - 33.8 °F 58% 29.72 in 10.0 mi NNE 4.6 mph - N/A   Clear
4:35 PM 50.0 °F - 33.8 °F 54% 29.72 in 10.0 mi Calm Calm - N/A   Clear
5:15 PM 50.0 °F - 33.8 °F 54% 29.70 in 10.0 mi East 3.5 mph - N/A   Clear
5:35 PM 50.0 °F - 35.6 °F 58% 29.69 in 10.0 mi East 8.1 mph - N/A   Clear
5:55 PM 48.2 °F - 35.6 °F 62% 29.68 in 10.0 mi East 5.8 mph - N/A   Clear
6:15 PM 50.0 °F - 35.6 °F 58% 29.68 in 10.0 mi ESE 5.8 mph - N/A   Clear
6:35 PM 50.0 °F - 35.6 °F 58% 29.68 in 10.0 mi ESE 5.8 mph - N/A   Clear
6:55 PM 48.2 °F - 35.6 °F 62% 29.69 in 10.0 mi SSE 8.1 mph - N/A   Clear
7:15 PM 48.2 °F - 35.6 °F 62% 29.69 in 10.0 mi SSE 9.2 mph - N/A   Clear
7:35 PM 46.4 °F 42.4 °F 35.6 °F 66% 29.68 in 10.0 mi SE 8.1 mph - N/A   Clear
7:55 PM 44.6 °F 41.4 °F 35.6 °F 71% 29.69 in 10.0 mi ESE 5.8 mph - N/A   Clear
8:15 PM 44.6 °F 40.2 °F 35.6 °F 71% 29.69 in 10.0 mi SE 8.1 mph - N/A   Clear
8:35 PM 44.6 °F 39.7 °F 35.6 °F 71% 29.70 in 10.0 mi SE 9.2 mph - N/A   Clear
9:35 PM 42.8 °F 38.6 °F 35.6 °F 76% 29.68 in 10.0 mi ESE 6.9 mph - N/A   Clear
9:55 PM 42.8 °F 38.0 °F 35.6 °F 76% 29.67 in 10.0 mi ESE 8.1 mph - N/A   Clear
10:15 PM 42.8 °F 38.0 °F 35.6 °F 76% 29.66 in 10.0 mi East 8.1 mph - N/A   Clear
10:35 PM 42.8 °F 39.3 °F 35.6 °F 76% 29.68 in 10.0 mi ESE 5.8 mph - N/A   Clear
11:15 PM 41.0 °F 36.4 °F 35.6 °F 81% 29.66 in 7.0 mi East 6.9 mph - N/A   Clear
11:35 PM 39.2 °F 34.2 °F 35.6 °F 87% 29.66 in 7.0 mi East 6.9 mph - N/A   Scattered Clouds
11:55 PM 39.2 °F 37.0 °F 35.6 °F 87% 29.65 in 7.0 mi East 3.5 mph - N/A   Scattered Clouds